Location: Salamanca
(40.9670°N, 5.6500°W)
Time: 09:28:50
(UTC+01:00)

Daily predictions for brighter satellites

Satellite Brightness Start Highest point End
(mag) Time Altitude Azimuth Time Altitude Azimuth Time Altitude Azimuth
ATLAS 2AS CENTAUR R/B 3.2 18:15:17 10° NNW 18:23:14 54° NE 18:30:40 10° SE
SPOT 3 Rocket 3.8 18:18:22 10° SE 18:23:18 47° ENE 18:28:15 10° N
Meteor 1-11 Rocket 4.4 18:19:33 10° NNW 18:25:00 59° W 18:30:24 10° S
Cosmos 1844 Rocket 2.7 18:19:49 10° S 18:25:19 67° ESE 18:30:55 10° NNE
SL-8 Rocket 4.1 18:19:44 10° N 18:25:47 54° E 18:31:46 10° SSE
Cosmos 372 Rocket 4.1 18:22:03 10° SSW 18:27:18 83° WNW 18:32:35 10° NNE
USA 32 4.1 18:31:05 10° SSE 18:36:10 57° E 18:41:17 10° NNE
YAOGAN 1 2.7 18:32:23 10° SSE 18:36:33 51° ENE 18:40:47 10° N
Cosmos 2366 rocket 4.2 18:30:44 10° N 18:36:52 49° ENE 18:42:56 10° SSE
BREEZE-M DEB (TANK) 4.1 18:30:45 10° WNW 18:38:09 64° SW 18:41:49 10° SE
Okean 1 4.3 18:36:19 10° SSE 18:39:43 26° E 18:43:09 10° NNE
Cosmos 1536 3.7 18:37:06 10° NNW 18:41:05 55° W 18:45:03 10° S
Cosmos 2218 Rocket 4.0 18:35:02 10° N 18:41:15 60° E 18:47:21 10° SSE
Cosmos 1844 3.7 18:35:54 10° SSW 18:41:23 67° ESE 18:46:54 10° NNE
CORIOLIS 4.2 18:36:19 10° SSE 18:41:37 59° ENE 18:46:55 10° N
Cosmos 2181 Rocket 4.2 18:36:19 10° S 18:42:38 80° W 18:49:06 10° N
IDEFIX/ARIANE 42P 2.5 18:38:10 10° SSE 18:43:19 68° ENE 18:48:29 10° N
AQUARIUS 4.1 18:39:20 10° SSE 18:43:47 68° ENE 18:48:15 10° N
Cosmos 1812 3.1 18:42:01 10° SSE 18:45:40 43° E 18:49:21 10° NNE
Cosmos 494 Rocket 4.2 18:41:41 10° N 18:46:48 50° ENE 18:51:53 10° SE
Tiangong 1 3.1 18:46:37 10° S 18:48:34 16° SSE 18:50:22 11° ESE
OPS 8737 4.3 18:45:35 10° SSW 18:48:56 60° ESE 18:51:32 14° NE
MSX 3.9 18:43:51 10° SSE 18:49:25 54° ENE 18:55:01 10° N
COSMOS 2487 3.9 18:51:50 10° NNE 18:54:27 19° ENE 18:55:44 16° E
Cosmos 1346 Rocket 3.8 18:52:56 10° SSE 18:56:12 26° E 18:58:31 15° NE
CZ-3B DEB 2.0 18:53:37 10° SW 18:57:03 88° SE 19:04:59 12° NE
Cosmos 1455 Rocket 3.0 18:53:14 10° N 18:57:38 64° E 19:02:00 10° SSE
Cosmos 2278 Rocket 2.3 18:52:33 10° S 18:58:02 55° ESE 19:03:33 10° NNE
SKYMED 2 4.2 18:54:20 10° NNE 18:58:19 34° E 19:02:14 10° SSE
Thor Agena Rocket 3.7 18:55:12 10° NNE 19:00:26 82° WNW 19:05:41 10° SSW
ISS -2.0 18:59:04 10° W 19:02:03 31° NNW 19:04:10 16° NNE
BREEZE M DEB (TANK) 3.8 18:52:35 10° SW 19:02:49 46° SSE 19:05:16 20° E
Meteor 1-12 Rocket 4.3 18:57:41 10° N 19:03:27 66° E 19:09:17 10° SSE
ASTRO F (AKARI) 4.1 19:00:45 10° NNE 19:03:53 66° ESE 19:06:59 10° S
SMAP 3.5 19:03:32 10° S 19:08:08 67° WSW 19:12:47 10° NNW
SL-24 DEB 4.3 19:04:31 10° NNE 19:09:14 60° E 19:13:51 10° S
Cosmos 1238 Rocket 2.2 19:06:45 10° SSW 19:09:40 72° W 19:12:41 10° N
CZ-2C R/B 3.0 19:06:44 10° S 19:11:38 63° W 19:16:42 10° NNW
Cosmos 2251 Rocket 3.6 19:06:43 10° NNW 19:12:06 83° WSW 19:17:24 10° SSE
CZ-4 R/B 3.0 19:10:27 10° SSW 19:14:22 39° W 19:18:17 10° NNW
Meteor 2-21 4.5 19:14:05 10° N 19:20:11 58° E 19:26:12 10° SSE
Cosmos 2082 Rocket 2.7 19:18:16 10° N 19:23:30 37° ENE 19:27:24 16° ESE
COSMOS 2441 4.3 19:18:40 10° SSE 19:23:32 89° W 19:28:27 10° NNW
Cosmos 1975 2.7 19:19:51 10° N 19:23:57 83° E 19:27:59 10° S
Meteor 1-13 Rocket 4.5 19:18:41 10° SSE 19:24:02 47° E 19:29:33 10° NNE
Cosmos 1833 Rocket 3.3 19:20:30 10° N 19:25:33 33° ENE 19:27:33 26° E
Abrixas 4.1 19:26:47 10° NW 19:28:48 23° N 19:28:48 23° N
BREEZE-M R/B 4.2 19:22:07 10° WSW 19:33:04 83° NNW 19:35:54 30° NE
OTV 4 3.5 19:32:22 10° SW 19:33:29 12° SSW 19:34:36 10° S
Nadezhda 3 Rocket 3.9 19:28:06 10° S 19:34:12 66° E 19:40:24 10° NNE
SL-8 R/B 3.7 19:30:12 10° WSW 19:34:58 79° NNW 19:36:52 37° NE
Genesis I 3.1 19:33:19 10° NNW 19:37:13 60° NE 19:37:59 48° ESE
Cosmos 375 4.3 19:37:20 10° NW 19:41:44 88° SW 19:43:55 25° SSE
Meteor 2-14 Rocket 4.4 19:36:19 10° N 19:42:26 64° E 19:48:30 10° SSE
Cosmos 1484 Rocket 3.1 19:38:50 10° S 19:42:33 61° W 19:46:16 10° NNW
Timation 1 Rocket 4.5 19:38:06 10° S 19:43:49 52° ESE 19:45:54 36° ENE
OE (NEXTSAT) 4.2 19:41:48 10° WSW 19:45:22 79° SSE 19:45:28 78° SE
USA 234 4.2 19:41:50 18° NNE 19:46:10 38° NNW 19:52:05 10° W
COSMO-SKYMED 1 2.8 19:42:26 12° N 19:46:25 69° WNW 19:50:43 10° SSW
CZ-3A R/B 4.5 19:40:42 10° W 19:46:52 49° N 20:04:42 22° ENE
SL-24 R/B - RUBIN 2 4.4 19:42:14 10° SSW 19:48:29 77° ESE 19:51:57 31° NE
Meteor 2-4 Rocket 3.8 19:46:59 10° SSE 19:52:01 45° E 19:52:01 45° E
GEOS 3 Rocket 3.5 19:49:55 16° SE 19:54:06 88° NE 19:59:14 10° NW
ATLAS 3B CENTAUR R/B 4.2 19:38:41 10° WSW 19:55:57 40° S 20:00:54 21° SE
Cosmos 1500 4.2 19:52:52 10° NNW 19:56:32 46° W 20:00:13 10° SSW
NOSS 3-4 (A) 4.2 19:52:21 10° NNW 19:58:51 40° NE 19:59:29 39° ENE
NOSS 3-4 (C) 4.2 19:52:27 10° NNW 19:58:57 40° NE 19:59:32 39° ENE
Meteor 1-28 Rocket 3.2 20:00:27 75° NW 20:00:36 77° WNW 20:04:22 10° SSW
Meteor 2-21 Rocket 4.5 19:54:28 10° N 20:00:42 83° W 20:06:50 10° S
Meteor 2-16 Rocket 4.3 19:58:55 10° N 20:05:02 87° E 20:11:07 10° S
ATLAS 2AS CENTAUR R/B 4.3 20:06:50 10° NW 20:14:00 38° WSW 20:20:42 10° S
FALCON 9 R/B 3.4 19:53:48 10° WSW 20:14:39 58° S 20:17:11 41° SE
Cosmos 1025 Rocket 4.1 20:14:01 10° S 20:16:34 35° S 20:16:34 35° S
Cosmos 1371 Rocket 4.1 20:14:20 10° S 20:18:54 63° SSE 20:18:54 63° SSE
Tiangong 1 4.1 20:21:24 10° WSW 20:22:04 15° WSW 20:22:04 15° WSW
Cosmos 921 Rocket 3.7 20:20:18 10° SSW 20:23:59 51° W 20:23:59 51° W
Cosmos 2297 4.1 20:21:58 10° SW 20:27:31 58° WNW 20:29:08 42° N
Cosmos 1934 Rocket 3.9 20:26:08 10° N 20:32:22 85° W 20:38:38 10° S
Cosmos 2278 Rocket 4.2 20:38:03 10° WSW 20:42:29 23° NW 20:45:35 15° NNW
Cosmos 2082 Rocket 3.8 21:02:30 10° NW 21:07:27 32° WSW 21:09:29 25° SW
Cosmos 1833 Rocket 4.0 21:04:22 10° NW 21:09:24 36° WSW 21:09:24 36° WSW
CZ-3B DEB 4.3 21:27:48 10° WNW 21:33:39 38° N 21:33:39 38° N
